Weather History for KAWG - February, 2013

Change the Weather History Date:

Monday, February 18, 2013

  Actual Average Record
Temperature  
Mean Temperature 37 °F -  
Max Temperature 55 °F 37 °F 60 °F (1997)
Min Temperature 19 °F 23 °F -4 °F (2006)
Degree Days  
Heating Degree Days 28    
Moisture  
Dew Point 30 °F    
Average Humidity 80    
Maximum Humidity 100    
Minimum Humidity 58    
Precipitation  
Precipitation 0.13 in - - ()
Sea Level Pressure  
Sea Level Pressure 29.65 in    
Wind  
Wind Speed 15 mph (WSW)    
Max Wind Speed 32 mph    
Max Gust Speed 44 mph    
Visibility 9 miles    
Events Rain , Snow    
Averages and records for this station are not official NWS values.
T = Trace of Precipitation, MM = Missing Value Source: NWS Daily Summary

Daily Weather History Graph

Daily Weather History Graph

Search for Another Location

Airport or City:

Trip Planner

Search our weather history database for the weather conditions in past years. The results will help you decide how hot, cold, wet, or windy it might be!

Date:

Astronomy

Feb. 18, 2013 Rise Set
Actual Time 6:57 AM CST 5:44 PM CST
Civil Twilight 6:28 AM CST 6:12 PM CST
Nautical Twilight 5:56 AM CST 6:45 PM CST
Astronomical Twilight 5:24 AM CST 7:17 PM CST
Moon 11:29 AM CST (2/18) 1:38 AM CST (2/18)
Length of Visible Light 11h 44m
Length of Day
10h 47m
First Quarter, 58% of the Moon is Illuminated
Feb 18
First Quarter
Feb 25
Full
Mar 4
Last Quarter
Mar 11
New
Mar 19
First Quarter

Hourly Weather History & Observations

Time (CST) Temp. Windchill Dew Point Humidity Pressure Visibility Wind Dir Wind Speed Gust Speed Precip Events Conditions
12:15 AM 33.8 °F 24.3 °F 28.4 °F 81% 29.76 in 10.0 mi SSE 13.8 mph - N/A   Clear
12:35 AM 33.8 °F 24.3 °F 28.4 °F 81% 29.75 in 10.0 mi SSE 13.8 mph - N/A   Clear
12:55 AM 35.6 °F 26.6 °F 28.4 °F 75% 29.75 in 10.0 mi SSE 13.8 mph - N/A   Clear
1:15 AM 35.6 °F 26.6 °F 28.4 °F 75% 29.73 in 10.0 mi SSE 13.8 mph - N/A   Clear
1:35 AM 35.6 °F 27.1 °F 30.2 °F 81% 29.72 in 10.0 mi SSE 12.7 mph - N/A   Clear
1:55 AM 35.6 °F 26.6 °F 30.2 °F 81% 29.71 in 10.0 mi SSE 13.8 mph - N/A   Clear
2:15 AM 35.6 °F 26.6 °F 30.2 °F 81% 29.70 in 10.0 mi SSE 13.8 mph - N/A   Clear
2:35 AM 35.6 °F 26.2 °F 30.2 °F 81% 29.69 in 10.0 mi South 15.0 mph - N/A   Clear
2:55 AM 35.6 °F 26.6 °F 30.2 °F 81% 29.68 in 10.0 mi South 13.8 mph - N/A   Clear
3:15 AM 37.4 °F 29.3 °F 30.2 °F 75% 29.67 in 10.0 mi South 12.7 mph - N/A   Clear
3:35 AM 35.6 °F 27.5 °F 30.2 °F 81% 29.66 in 10.0 mi SSE 11.5 mph - N/A   Clear
3:55 AM 35.6 °F 27.5 °F 30.2 °F 81% 29.65 in 10.0 mi SSE 11.5 mph - N/A   Clear
4:15 AM 37.4 °F 30.3 °F 30.2 °F 75% 29.64 in 10.0 mi SSE 10.4 mph - N/A   Clear
4:35 AM 37.4 °F 30.8 °F 30.2 °F 75% 29.64 in 10.0 mi South 9.2 mph - N/A   Clear
4:55 AM 37.4 °F 29.8 °F 32.0 °F 81% 29.64 in 10.0 mi SSE 11.5 mph - N/A   Clear
5:15 AM 35.6 °F 29.9 °F 30.2 °F 81% 29.64 in 10.0 mi SSE 6.9 mph - N/A   Clear
5:35 AM 35.6 °F 28.6 °F 32.0 °F 87% 29.63 in 10.0 mi SSE 9.2 mph - N/A   Clear
5:55 AM 35.6 °F 28.6 °F 32.0 °F 87% 29.63 in 10.0 mi South 9.2 mph - N/A   Clear
6:15 AM 35.6 °F 28.6 °F 32.0 °F 87% 29.62 in 10.0 mi South 9.2 mph - N/A   Clear
6:35 AM 35.6 °F 28.6 °F 32.0 °F 87% 29.61 in 10.0 mi South 9.2 mph - N/A   Clear
6:55 AM 35.6 °F 28.6 °F 32.0 °F 87% 29.61 in 10.0 mi South 9.2 mph - N/A   Clear
7:15 AM 37.4 °F 30.3 °F 32.0 °F 81% 29.61 in 10.0 mi South 10.4 mph - N/A   Clear
7:35 AM 37.4 °F 30.3 °F 33.8 °F 87% 29.61 in 10.0 mi South 10.4 mph - N/A   Clear
7:55 AM 39.2 °F 32.5 °F 33.8 °F 81% 29.60 in 10.0 mi South 10.4 mph - N/A   Clear
8:15 AM 39.2 °F 31.2 °F 33.8 °F 81% 29.60 in 10.0 mi South 13.8 mph - N/A   Clear
8:35 AM 42.8 °F 34.8 °F 35.6 °F 76% 29.60 in 10.0 mi South 17.3 mph - N/A   Clear
8:55 AM 42.8 °F 35.4 °F 35.6 °F 76% 29.60 in 10.0 mi South 15.0 mph - N/A   Clear
9:15 AM 44.6 °F 37.4 °F 35.6 °F 71% 29.59 in 10.0 mi South 16.1 mph - N/A   Clear
9:35 AM 44.6 °F 37.4 °F 35.6 °F 71% 29.58 in 10.0 mi South 16.1 mph - N/A   Clear
9:55 AM 48.2 °F - 37.4 °F 66% 29.57 in 10.0 mi South 17.3 mph 21.9 mph N/A   Clear
10:15 AM 48.2 °F - 37.4 °F 66% 29.57 in 10.0 mi South 19.6 mph 25.3 mph N/A   Clear
10:35 AM 51.8 °F - 39.2 °F 62% 29.57 in 10.0 mi SSW 20.7 mph 26.5 mph N/A   Clear
10:55 AM 53.6 °F - 39.2 °F 58% 29.56 in 10.0 mi SSW 21.9 mph 28.8 mph N/A   Scattered Clouds
11:15 AM 53.6 °F - 39.2 °F 58% 29.56 in 10.0 mi SSW 23.0 mph 29.9 mph N/A   Mostly Cloudy
11:35 AM 55.4 °F - 41.0 °F 58% 29.57 in 10.0 mi SW 16.1 mph 19.6 mph N/A   Overcast
11:55 AM 53.6 °F - 39.2 °F 58% 29.56 in 10.0 mi SW 11.5 mph - N/A   Overcast
12:15 PM 51.8 °F - 39.2 °F 62% 29.55 in 10.0 mi WSW 10.4 mph - N/A   Overcast
12:35 PM 48.2 °F - 37.4 °F 66% 29.55 in 10.0 mi WNW 12.7 mph - N/A   Overcast
12:55 PM 44.6 °F 38.4 °F 37.4 °F 76% 29.55 in 10.0 mi WNW 12.7 mph - N/A   Drizzle
1:15 PM 42.8 °F 36.2 °F 37.4 °F 81% 29.55 in 10.0 mi WNW 12.7 mph - N/A   Drizzle
1:35 PM 41.0 °F 34.3 °F 37.4 °F 87% 29.55 in 10.0 mi West 11.5 mph - N/A   Drizzle
1:55 PM 41.0 °F 33.9 °F 37.4 °F 87% 29.55 in 10.0 mi West 12.7 mph - N/A   Drizzle
2:15 PM 39.2 °F 31.2 °F 37.4 °F 93% 29.55 in 7.0 mi WNW 13.8 mph - N/A Rain Light Rain
2:35 PM 39.2 °F 30.5 °F 35.6 °F 87% 29.56 in 10.0 mi NW 16.1 mph 23.0 mph 0.01 in Rain Light Rain
2:55 PM 39.2 °F 30.5 °F 37.4 °F 93% 29.56 in 4.0 mi NW 16.1 mph 20.7 mph 0.02 in Rain Rain
3:15 PM 37.4 °F 26.9 °F 37.4 °F 100% 29.57 in 2.5 mi NW 20.7 mph 31.1 mph 0.04 in Rain Light Rain
3:35 PM 37.4 °F 27.2 °F 35.6 °F 93% 29.57 in 4.0 mi NW 19.6 mph 31.1 mph 0.06 in Rain Rain
3:55 PM 35.6 °F 25.2 °F 35.6 °F 100% 29.58 in 3.0 mi NW 18.4 mph 24.2 mph 0.08 in Rain Light Rain
4:15 PM 35.6 °F 25.9 °F 35.6 °F 100% 29.59 in 3.0 mi NW 16.1 mph 20.7 mph 0.01 in Snow Light Snow
4:35 PM 33.8 °F 22.8 °F 33.8 °F 100% 29.61 in 1.2 mi NW 18.4 mph 24.2 mph 0.03 in Snow Light Snow
4:55 PM 33.8 °F 21.3 °F 33.8 °F 100% 29.62 in 2.0 mi NW 24.2 mph 33.4 mph 0.03 in Snow Light Snow
5:35 PM 32.0 °F 20.1 °F 30.2 °F 93% 29.64 in 10.0 mi NW 19.6 mph 35.7 mph N/A   Overcast
5:55 PM 30.2 °F 16.5 °F 28.4 °F 93% 29.65 in 10.0 mi WNW 24.2 mph 33.4 mph N/A   Overcast
6:15 PM 30.2 °F 16.8 °F 26.6 °F 86% 29.67 in 5.0 mi NW 23.0 mph 36.8 mph N/A Snow Light Snow
6:35 PM 30.2 °F 16.5 °F 26.6 °F 86% 29.68 in 10.0 mi WNW 24.2 mph 33.4 mph N/A   Overcast
6:55 PM 28.4 °F 13.3 °F 24.8 °F 86% 29.70 in 10.0 mi WNW 27.6 mph 33.4 mph N/A   Overcast
7:15 PM 28.4 °F 14.1 °F 24.8 °F 86% 29.72 in 10.0 mi WNW 24.2 mph 33.4 mph N/A   Overcast
7:35 PM 26.6 °F 11.7 °F 21.2 °F 80% 29.73 in 10.0 mi NW 24.2 mph 40.3 mph N/A   Overcast
7:55 PM 26.6 °F 10.3 °F 21.2 °F 80% 29.73 in 10.0 mi WNW 29.9 mph 33.4 mph N/A   Overcast
8:15 PM 26.6 °F 11.7 °F 19.4 °F 74% 29.75 in 10.0 mi NW 24.2 mph 43.7 mph N/A   Overcast
8:35 PM 26.6 °F 13.4 °F 21.2 °F 80% 29.75 in 10.0 mi WNW 18.4 mph 26.5 mph N/A   Overcast
8:55 PM 24.8 °F 9.3 °F 19.4 °F 80% 29.77 in 10.0 mi WNW 24.2 mph 34.5 mph N/A   Overcast
9:15 PM 24.8 °F 8.4 °F 19.4 °F 80% 29.78 in 10.0 mi WNW 27.6 mph 36.8 mph N/A   Overcast
9:35 PM 24.8 °F 7.3 °F 17.6 °F 74% 29.78 in 10.0 mi WNW 32.2 mph 42.6 mph N/A   Overcast
9:55 PM 21.2 °F 3.9 °F 15.8 °F 80% 29.80 in 10.0 mi NW 26.5 mph 38.0 mph N/A   Mostly Cloudy
10:15 PM 21.2 °F 4.9 °F 17.6 °F 86% 29.80 in 10.0 mi WNW 23.0 mph 28.8 mph N/A   Mostly Cloudy
10:35 PM 21.2 °F 4.5 °F 17.6 °F 86% 29.82 in 10.0 mi WNW 24.2 mph 34.5 mph N/A   Overcast
10:55 PM 21.2 °F 2.7 °F 15.8 °F 80% 29.82 in 10.0 mi WNW 31.1 mph 35.7 mph N/A   Mostly Cloudy
11:15 PM 19.4 °F 1.4 °F 14.0 °F 80% 29.83 in 10.0 mi West 26.5 mph 38.0 mph N/A   Mostly Cloudy
11:35 PM 19.4 °F 1.8 °F 12.2 °F 74% 29.84 in 10.0 mi WNW 25.3 mph 38.0 mph N/A Snow Light Snow
11:55 PM 19.4 °F 2.5 °F 12.2 °F 74% 29.84 in 10.0 mi WNW 23.0 mph 34.5 mph N/A   Overcast